SWA1476 KAUS-KMCO

Flight info

Callsign SWA1476
Flight time 2h 3m
Altitude 39000
Route ILEXY4 ZENZI DAS CRAWS DUNBE PENSI CEW J2 DEFUN GRNCH5
Aircraft B738/M-SADE2E3GIJ4RWZ/LB1D1

Departure

Time 2026-04-20 20:15
Airport Austin Bergstrom International Airport (KAUS)

Arrival

Time 2026-04-20 22:19
Airport Orlando International Airport (KMCO)
Time Latitude Longitude Altitude Speed Heading
2026-04-20 19:57 30.20155 -97.66813 500 ft 0 kts 20°
2026-04-20 20:05 30.20150 -97.66814 500 ft 2 kts 24°
2026-04-20 20:05 30.20137 -97.66822 500 ft 2 kts 19°
2026-04-20 20:05 30.20123 -97.66827 499 ft 2 kts 20°
2026-04-20 20:06 30.20108 -97.66833 499 ft 2 kts 28°
2026-04-20 20:06 30.20097 -97.66845 499 ft 2 kts 53°
2026-04-20 20:06 30.20090 -97.66860 499 ft 2 kts 74°
2026-04-20 20:06 30.20088 -97.66876 500 ft 1 kts 95°
2026-04-20 20:07 30.20089 -97.66884 500 ft 1 kts 101°
2026-04-20 20:07 30.20090 -97.66886 500 ft 0 kts 99°
2026-04-20 20:08 30.20090 -97.66885 500 ft 0 kts 99°
2026-04-20 20:09 30.20082 -97.66844 499 ft 9 kts 103°
2026-04-20 20:09 30.20064 -97.66737 498 ft 17 kts 110°
2026-04-20 20:09 30.19958 -97.66684 496 ft 17 kts 173°
2026-04-20 20:09 30.19844 -97.66644 494 ft 18 kts 116°
2026-04-20 20:10 30.19838 -97.66503 494 ft 17 kts 88°
2026-04-20 20:10 30.19842 -97.66358 491 ft 18 kts 88°
2026-04-20 20:10 30.19843 -97.66209 491 ft 18 kts 89°
2026-04-20 20:10 30.19847 -97.66063 488 ft 18 kts 88°
2026-04-20 20:11 30.19826 -97.65914 486 ft 19 kts 138°
2026-04-20 20:11 30.19692 -97.65895 485 ft 19 kts 184°
2026-04-20 20:11 30.19557 -97.65895 483 ft 19 kts 178°
2026-04-20 20:11 30.19417 -97.65890 482 ft 19 kts 180°
2026-04-20 20:12 30.19281 -97.65888 482 ft 19 kts 179°
2026-04-20 20:12 30.19149 -97.65882 481 ft 19 kts 178°
2026-04-20 20:12 30.19002 -97.65878 481 ft 22 kts 178°
2026-04-20 20:13 30.18637 -97.65874 481 ft 30 kts 179°
2026-04-20 20:13 30.18416 -97.65870 484 ft 33 kts 179°
2026-04-20 20:13 30.18178 -97.65865 481 ft 33 kts 178°
2026-04-20 20:13 30.18007 -97.65854 478 ft 10 kts 154°
2026-04-20 20:14 30.17997 -97.65842 478 ft 0 kts 117°
2026-04-20 20:14 30.17994 -97.65810 477 ft 12 kts 85°
2026-04-20 20:14 30.18144 -97.65735 478 ft 42 kts 359°
2026-04-20 20:15 30.18658 -97.65747 481 ft 106 kts 359°
2026-04-20 20:15 30.19600 -97.65765 486 ft 159 kts 359°
2026-04-20 20:15 30.20705 -97.65775 1101 ft 158 kts
2026-04-20 20:15 30.21862 -97.65747 1553 ft 173 kts
2026-04-20 20:16 30.23075 -97.65742 2052 ft 178 kts
2026-04-20 20:16 30.24353 -97.65746 2462 ft 191 kts
2026-04-20 20:16 30.25756 -97.65662 2712 ft 213 kts
2026-04-20 20:16 30.27331 -97.65424 2811 ft 244 kts 14°
2026-04-20 20:17 30.28966 -97.64812 3365 ft 246 kts 35°
2026-04-20 20:17 30.30098 -97.63361 3754 ft 251 kts 71°
2026-04-20 20:17 30.30236 -97.61405 4449 ft 248 kts 102°
2026-04-20 20:17 30.29708 -97.59497 5085 ft 253 kts 110°
2026-04-20 20:18 30.29128 -97.57584 5737 ft 257 kts 105°
2026-04-20 20:18 30.28833 -97.55543 6426 ft 261 kts 94°
2026-04-20 20:18 30.28896 -97.53401 7017 ft 270 kts 84°
2026-04-20 20:18 30.29234 -97.51242 7633 ft 278 kts 79°
2026-04-20 20:19 30.29698 -97.49063 8258 ft 285 kts 77°
2026-04-20 20:19 30.30205 -97.46832 8867 ft 292 kts 77°
2026-04-20 20:19 30.30723 -97.44533 9492 ft 299 kts 77°
2026-04-20 20:19 30.31240 -97.42199 10125 ft 306 kts 77°
2026-04-20 20:20 30.31761 -97.39814 10830 ft 310 kts 77°
2026-04-20 20:20 30.32295 -97.37359 11469 ft 317 kts 77°
2026-04-20 20:20 30.32834 -97.34888 12172 ft 321 kts 77°
2026-04-20 20:20 30.33378 -97.32393 12814 ft 327 kts 77°
2026-04-20 20:21 30.33946 -97.29772 13201 ft 343 kts 77°
2026-04-20 20:21 30.34542 -97.27020 13594 ft 359 kts 77°
2026-04-20 20:21 30.35163 -97.24172 13963 ft 374 kts 77°
2026-04-20 20:21 30.35708 -97.21185 14436 ft 386 kts 83°
2026-04-20 20:22 30.35918 -97.18058 14762 ft 401 kts 90°
2026-04-20 20:22 30.35867 -97.14764 15090 ft 415 kts 94°
2026-04-20 20:22 30.35678 -97.11407 15410 ft 429 kts 96°
2026-04-20 20:22 30.35428 -97.07936 15949 ft 436 kts 96°
2026-04-20 20:23 30.35170 -97.04442 16649 ft 439 kts 96°
2026-04-20 20:23 30.34918 -97.00904 17274 ft 443 kts 95°
2026-04-20 20:23 30.34675 -96.97337 17822 ft 448 kts 94°
2026-04-20 20:23 30.34444 -96.93774 18424 ft 452 kts 94°
2026-04-20 20:24 30.34217 -96.90140 19018 ft 456 kts 94°
2026-04-20 20:24 30.33994 -96.86489 19560 ft 460 kts 94°
2026-04-20 20:24 30.33768 -96.82760 20118 ft 465 kts 94°
2026-04-20 20:24 30.33540 -96.79009 20685 ft 469 kts 94°
2026-04-20 20:25 30.33310 -96.75262 21211 ft 473 kts 94°
2026-04-20 20:25 30.33074 -96.71452 21795 ft 475 kts 94°
2026-04-20 20:25 30.32837 -96.67637 22324 ft 479 kts 94°
2026-04-20 20:25 30.32595 -96.63784 22811 ft 483 kts 94°
2026-04-20 20:26 30.32352 -96.59928 23329 ft 487 kts 94°
2026-04-20 20:26 30.32106 -96.56034 23764 ft 492 kts 94°
2026-04-20 20:26 30.31855 -96.52090 24266 ft 495 kts 94°
2026-04-20 20:26 30.31598 -96.48058 24718 ft 500 kts 94°
2026-04-20 20:27 30.31343 -96.44093 25218 ft 503 kts 94°
2026-04-20 20:27 30.31082 -96.40047 25663 ft 508 kts 94°
2026-04-20 20:27 30.30816 -96.35932 26101 ft 512 kts 94°
2026-04-20 20:27 30.30551 -96.31854 26515 ft 517 kts 95°
2026-04-20 20:28 30.30278 -96.27685 26956 ft 520 kts 95°
2026-04-20 20:28 30.30003 -96.23498 27372 ft 524 kts 95°
2026-04-20 20:28 30.29728 -96.19340 27782 ft 527 kts 95°
2026-04-20 20:28 30.29446 -96.15086 28150 ft 531 kts 95°
2026-04-20 20:29 30.29162 -96.10816 28603 ft 534 kts 95°
2026-04-20 20:29 30.28878 -96.06584 28991 ft 537 kts 94°
2026-04-20 20:29 30.28591 -96.02277 29481 ft 537 kts 94°
2026-04-20 20:29 30.28307 -95.97967 29960 ft 538 kts 94°
2026-04-20 20:30 30.28029 -95.93689 30438 ft 538 kts 94°
2026-04-20 20:30 30.27749 -95.89391 31032 ft 534 kts 95°
2026-04-20 20:30 30.27475 -95.85171 31958 ft 523 kts 95°
2026-04-20 20:30 30.27207 -95.81091 32909 ft 511 kts 95°
2026-04-20 20:31 30.26939 -95.77024 33634 ft 504 kts 95°
2026-04-20 20:31 30.26667 -95.72974 33944 ft 505 kts 96°
2026-04-20 20:31 30.26390 -95.68874 34242 ft 507 kts 96°
2026-04-20 20:31 30.26110 -95.64745 34534 ft 508 kts 96°
2026-04-20 20:32 30.25837 -95.60738 34892 ft 508 kts 95°
2026-04-20 20:32 30.25558 -95.56667 35232 ft 507 kts 96°
2026-04-20 20:32 30.25279 -95.52602 35548 ft 508 kts 96°
2026-04-20 20:32 30.24997 -95.48521 35816 ft 509 kts 96°
2026-04-20 20:33 30.24718 -95.44488 36090 ft 510 kts 96°
2026-04-20 20:33 30.24435 -95.40421 36366 ft 511 kts 96°
2026-04-20 20:33 30.24149 -95.36303 36661 ft 511 kts 96°
2026-04-20 20:33 30.23862 -95.32211 36897 ft 512 kts 96°
2026-04-20 20:34 30.23575 -95.28142 37153 ft 512 kts 96°
2026-04-20 20:34 30.23284 -95.24038 37389 ft 513 kts 96°
2026-04-20 20:34 30.22994 -95.19961 37665 ft 512 kts 96°
2026-04-20 20:34 30.22700 -95.15829 37883 ft 513 kts 96°
2026-04-20 20:35 30.22409 -95.11749 38080 ft 514 kts 96°
2026-04-20 20:35 30.22115 -95.07650 38293 ft 515 kts 96°
2026-04-20 20:35 30.21818 -95.03539 38711 ft 513 kts 96°
2026-04-20 20:35 30.21520 -94.99441 39127 ft 510 kts 96°
2026-04-20 20:36 30.20926 -94.91303 39221 ft 513 kts 96°
2026-04-20 20:36 30.20321 -94.83105 39228 ft 510 kts 96°
2026-04-20 20:37 30.19716 -94.74969 39232 ft 510 kts 96°
2026-04-20 20:37 30.19428 -94.66816 39232 ft 512 kts 88°
2026-04-20 20:38 30.20052 -94.58624 39230 ft 512 kts 81°
2026-04-20 20:38 30.21320 -94.50491 39306 ft 518 kts 77°
2026-04-20 20:39 30.22072 -94.46423 39485 ft 518 kts 76°
2026-04-20 20:39 30.22849 -94.42376 39629 ft 517 kts 76°
2026-04-20 20:39 30.24384 -94.34367 39562 ft 506 kts 77°
2026-04-20 20:40 30.25121 -94.30449 39213 ft 500 kts 77°
2026-04-20 20:40 30.25852 -94.26504 39230 ft 501 kts 77°
2026-04-20 20:40 30.27300 -94.18583 39231 ft 508 kts 77°
2026-04-20 20:41 30.28758 -94.10506 39219 ft 514 kts 77°
2026-04-20 20:41 30.30200 -94.02441 39218 ft 513 kts 77°
2026-04-20 20:42 30.31630 -93.94412 39223 ft 514 kts 77°
2026-04-20 20:42 30.33069 -93.86310 39222 ft 513 kts 77°
2026-04-20 20:43 30.34510 -93.78178 39228 ft 514 kts 77°
2026-04-20 20:43 30.35938 -93.70064 39231 ft 513 kts 77°
2026-04-20 20:44 30.37351 -93.62000 39222 ft 513 kts 77°
2026-04-20 20:44 30.38766 -93.53922 39222 ft 514 kts 77°
2026-04-20 20:45 30.40171 -93.45866 39205 ft 513 kts 77°
2026-04-20 20:45 30.41574 -93.37781 39222 ft 513 kts 77°
2026-04-20 20:46 30.42974 -93.29681 39244 ft 514 kts 77°
2026-04-20 20:46 30.44364 -93.21617 39242 ft 514 kts 77°
2026-04-20 20:47 30.45765 -93.13464 39238 ft 516 kts 77°
2026-04-20 20:47 30.47152 -93.05360 39236 ft 516 kts 77°
2026-04-20 20:48 30.48538 -92.97234 39232 ft 515 kts 77°
2026-04-20 20:48 30.49915 -92.89089 39230 ft 515 kts 77°
2026-04-20 20:49 30.51285 -92.80956 39248 ft 516 kts 77°
2026-04-20 20:49 30.52654 -92.72844 39230 ft 515 kts 77°
2026-04-20 20:50 30.54021 -92.64696 39253 ft 515 kts 77°
2026-04-20 20:50 30.55373 -92.56601 39218 ft 514 kts 77°
2026-04-20 20:51 30.56723 -92.48460 39229 ft 514 kts 77°
2026-04-20 20:51 30.58061 -92.40376 39235 ft 514 kts 77°
2026-04-20 20:52 30.59258 -92.32189 39236 ft 514 kts 82°
2026-04-20 20:52 30.59811 -92.23930 39247 ft 516 kts 86°
2026-04-20 20:53 30.60135 -92.15677 39246 ft 516 kts 87°
2026-04-20 20:53 30.60460 -92.07346 39257 ft 514 kts 86°
2026-04-20 20:54 30.60815 -91.99107 39253 ft 514 kts 86°
2026-04-20 20:54 30.61202 -91.90857 39245 ft 509 kts 86°
2026-04-20 20:55 30.61595 -91.82705 39234 ft 511 kts 86°
2026-04-20 20:55 30.61988 -91.74473 39233 ft 512 kts 86°
2026-04-20 20:56 30.62375 -91.66257 39238 ft 510 kts 86°
2026-04-20 20:56 30.62756 -91.58025 39252 ft 511 kts 85°
2026-04-20 20:57 30.63131 -91.49808 39252 ft 510 kts 85°
2026-04-20 20:57 30.63502 -91.41598 39257 ft 511 kts 85°
2026-04-20 20:58 30.63871 -91.33395 39257 ft 511 kts 86°
2026-04-20 20:58 30.64234 -91.25187 39245 ft 511 kts 86°
2026-04-20 20:59 30.64591 -91.16963 39240 ft 511 kts 86°
2026-04-20 20:59 30.64937 -91.08741 39243 ft 511 kts 86°
2026-04-20 21:00 30.65283 -91.00511 39239 ft 511 kts 86°
2026-04-20 21:00 30.65622 -90.92322 39237 ft 511 kts 86°
2026-04-20 21:01 30.65959 -90.84065 39230 ft 512 kts 86°
2026-04-20 21:01 30.66286 -90.75930 39223 ft 511 kts 85°
2026-04-20 21:02 30.66607 -90.67727 39225 ft 512 kts 85°
2026-04-20 21:02 30.66930 -90.59476 39232 ft 513 kts 85°
2026-04-20 21:03 30.67241 -90.51238 39246 ft 513 kts 86°
2026-04-20 21:03 30.67551 -90.42951 39250 ft 513 kts 85°
2026-04-20 21:04 30.67855 -90.34655 39248 ft 514 kts 86°
2026-04-20 21:04 30.68153 -90.26440 39252 ft 512 kts 86°
2026-04-20 21:05 30.68452 -90.18137 39252 ft 516 kts 86°
2026-04-20 21:05 30.68742 -90.09836 39247 ft 514 kts 86°
2026-04-20 21:06 30.69023 -90.01592 39249 ft 515 kts 85°
2026-04-20 21:06 30.69304 -89.93297 39263 ft 514 kts 86°
2026-04-20 21:07 30.69579 -89.85037 39258 ft 515 kts 86°
2026-04-20 21:07 30.69883 -89.76736 39257 ft 514 kts 85°
2026-04-20 21:08 30.70272 -89.68491 39245 ft 514 kts 84°
2026-04-20 21:08 30.70679 -89.60191 39247 ft 516 kts 84°
2026-04-20 21:09 30.71075 -89.51898 39238 ft 517 kts 85°
2026-04-20 21:09 30.71456 -89.43599 39239 ft 516 kts 84°
2026-04-20 21:10 30.71826 -89.35313 39240 ft 518 kts 84°
2026-04-20 21:10 30.72190 -89.26995 39233 ft 518 kts 85°
2026-04-20 21:11 30.72547 -89.18643 39234 ft 518 kts 85°
2026-04-20 21:11 30.72897 -89.10342 39237 ft 517 kts 85°
2026-04-20 21:12 30.73246 -89.02007 39233 ft 518 kts 85°
2026-04-20 21:12 30.73586 -88.93663 39220 ft 518 kts 85°
2026-04-20 21:13 30.73924 -88.85354 39230 ft 518 kts 85°
2026-04-20 21:13 30.74255 -88.76960 39220 ft 518 kts 85°
2026-04-20 21:14 30.74583 -88.68646 39227 ft 518 kts 84°
2026-04-20 21:14 30.74906 -88.60305 39233 ft 520 kts 84°
2026-04-20 21:15 30.75218 -88.51962 39239 ft 521 kts 84°
2026-04-20 21:15 30.75527 -88.43564 39253 ft 519 kts 84°
2026-04-20 21:16 30.75837 -88.35194 39249 ft 520 kts 84°
2026-04-20 21:16 30.76140 -88.26843 39246 ft 521 kts 85°
2026-04-20 21:17 30.76435 -88.18477 39249 ft 521 kts 85°
2026-04-20 21:17 30.76729 -88.10038 39250 ft 521 kts 85°
2026-04-20 21:18 30.77018 -88.01653 39246 ft 523 kts 85°
2026-04-20 21:18 30.77293 -87.93303 39246 ft 520 kts 85°
2026-04-20 21:19 30.77567 -87.84875 39238 ft 522 kts 85°
2026-04-20 21:20 30.77968 -87.72325 39232 ft 524 kts 84°
2026-04-20 21:20 30.78229 -87.63917 39225 ft 521 kts 85°
2026-04-20 21:21 30.78485 -87.55496 39224 ft 523 kts 85°
2026-04-20 21:21 30.78736 -87.47025 39226 ft 524 kts 85°
2026-04-20 21:22 30.78978 -87.38657 39233 ft 521 kts 85°
2026-04-20 21:22 30.79218 -87.30227 39248 ft 522 kts 85°
2026-04-20 21:23 30.79504 -87.21819 39264 ft 524 kts 84°
2026-04-20 21:23 30.79980 -87.13357 39253 ft 523 kts 83°
2026-04-20 21:24 30.80510 -87.04948 39255 ft 523 kts 82°
2026-04-20 21:24 30.81018 -86.96541 39264 ft 523 kts 82°
2026-04-20 21:25 30.81497 -86.88136 39253 ft 525 kts 83°
2026-04-20 21:25 30.81960 -86.79680 39249 ft 525 kts 83°
2026-04-20 21:26 30.82413 -86.71254 39255 ft 525 kts 83°
2026-04-20 21:26 30.82744 -86.62780 39255 ft 528 kts 86°
2026-04-20 21:27 30.82592 -86.54240 39264 ft 530 kts 89°
2026-04-20 21:27 30.82290 -86.45692 39260 ft 530 kts 89°
2026-04-20 21:28 30.82008 -86.37157 39251 ft 531 kts 89°
2026-04-20 21:28 30.81771 -86.28642 39243 ft 529 kts 90°
2026-04-20 21:29 30.81558 -86.20120 39237 ft 532 kts 89°
2026-04-20 21:29 30.81364 -86.11575 39238 ft 529 kts 88°
2026-04-20 21:30 30.81504 -86.03011 39239 ft 528 kts 84°
2026-04-20 21:30 30.81890 -85.94537 39229 ft 528 kts 83°
2026-04-20 21:31 30.82294 -85.85992 39232 ft 532 kts 84°
2026-04-20 21:31 30.82642 -85.77420 39235 ft 529 kts 84°
2026-04-20 21:32 30.82936 -85.68897 39232 ft 532 kts 85°
2026-04-20 21:32 30.83213 -85.60319 39231 ft 531 kts 84°
2026-04-20 21:33 30.83484 -85.51728 39236 ft 532 kts 84°
2026-04-20 21:33 30.83747 -85.43206 39235 ft 533 kts 84°
2026-04-20 21:34 30.84009 -85.34558 39233 ft 534 kts 85°
2026-04-20 21:34 30.84258 -85.26015 39240 ft 531 kts 85°
2026-04-20 21:35 30.84512 -85.17423 39241 ft 534 kts 84°
2026-04-20 21:35 30.84763 -85.08780 39238 ft 532 kts 84°
2026-04-20 21:36 30.85004 -85.00203 39242 ft 532 kts 85°
2026-04-20 21:36 30.85235 -84.91621 39233 ft 534 kts 85°
2026-04-20 21:37 30.85468 -84.83006 39236 ft 535 kts 85°
2026-04-20 21:37 30.85684 -84.74581 39237 ft 532 kts 85°
2026-04-20 21:38 30.85907 -84.65962 39238 ft 533 kts 84°
2026-04-20 21:38 30.86122 -84.57364 39237 ft 537 kts 85°
2026-04-20 21:39 30.86323 -84.48666 39234 ft 535 kts 84°
2026-04-20 21:39 30.86525 -84.40056 39228 ft 534 kts 85°
2026-04-20 21:40 30.86724 -84.31438 39228 ft 538 kts 85°
2026-04-20 21:40 30.86910 -84.22768 39226 ft 535 kts 85°
2026-04-20 21:41 30.87087 -84.14117 39223 ft 540 kts 84°
2026-04-20 21:41 30.87267 -84.05417 39226 ft 538 kts 85°
2026-04-20 21:42 30.87442 -83.96742 39235 ft 536 kts 85°
2026-04-20 21:42 30.87609 -83.88099 39232 ft 537 kts 85°
2026-04-20 21:43 30.87777 -83.79400 39234 ft 544 kts 85°
2026-04-20 21:43 30.87944 -83.70570 39227 ft 545 kts 84°
2026-04-20 21:44 30.88098 -83.61810 39221 ft 546 kts 85°
2026-04-20 21:44 30.88242 -83.52994 39214 ft 546 kts 85°
2026-04-20 21:45 30.88376 -83.44210 39214 ft 545 kts 85°
2026-04-20 21:45 30.88502 -83.35422 39220 ft 545 kts 85°
2026-04-20 21:46 30.88631 -83.26625 39223 ft 544 kts 86°
2026-04-20 21:46 30.88757 -83.17778 39222 ft 547 kts 85°
2026-04-20 21:47 30.88879 -83.09000 39222 ft 548 kts 86°
2026-04-20 21:47 30.88926 -83.00124 39213 ft 550 kts 89°
2026-04-20 21:48 30.87722 -82.91394 39206 ft 551 kts 110°
2026-04-20 21:48 30.86195 -82.87337 39205 ft 546 kts 121°
2026-04-20 21:48 30.84217 -82.83584 39206 ft 547 kts 128°
2026-04-20 21:49 30.79547 -82.76745 39198 ft 537 kts 142°
2026-04-20 21:49 30.73960 -82.71228 39202 ft 527 kts 150°
2026-04-20 21:50 30.68041 -82.66177 39198 ft 523 kts 152°
2026-04-20 21:50 30.62163 -82.61175 39201 ft 523 kts 151°
2026-04-20 21:51 30.56356 -82.56117 39199 ft 525 kts 150°
2026-04-20 21:51 30.50545 -82.50968 39202 ft 525 kts 150°
2026-04-20 21:52 30.44757 -82.45792 39209 ft 527 kts 150°
2026-04-20 21:52 30.38944 -82.40593 39208 ft 526 kts 149°
2026-04-20 21:53 30.33133 -82.35400 39209 ft 525 kts 149°
2026-04-20 21:53 30.27347 -82.30238 39213 ft 525 kts 150°
2026-04-20 21:54 30.21466 -82.25436 39211 ft 512 kts 160°
2026-04-20 21:54 30.18262 -82.23726 39217 ft 496 kts 171°
2026-04-20 21:54 30.14989 -82.22634 39223 ft 487 kts 178°
2026-04-20 21:55 30.08317 -82.21162 39220 ft 486 kts 182°
2026-04-20 21:55 30.01734 -82.19937 39211 ft 476 kts 182°
2026-04-20 21:56 29.95160 -82.18720 39213 ft 480 kts 182°
2026-04-20 21:56 29.91875 -82.18107 38899 ft 485 kts 182°
2026-04-20 21:56 29.88535 -82.17476 38111 ft 489 kts 182°
2026-04-20 21:56 29.85233 -82.16823 38186 ft 473 kts 182°
2026-04-20 21:57 29.81981 -82.16161 38352 ft 469 kts 182°
2026-04-20 21:57 29.78729 -82.15518 37725 ft 481 kts 182°
2026-04-20 21:57 29.75446 -82.14876 37146 ft 481 kts 181°
2026-04-20 21:57 29.72187 -82.14230 36578 ft 479 kts 182°
2026-04-20 21:58 29.68861 -82.13568 35972 ft 477 kts 181°
2026-04-20 21:58 29.66208 -82.13034 35653 ft 472 kts 181°
2026-04-20 21:58 29.65970 -82.12986 35610 ft 472 kts 181°
2026-04-20 21:59 29.61810 -82.12160 34383 ft 481 kts 181°
2026-04-20 21:59 29.58533 -82.11513 33819 ft 477 kts 181°
2026-04-20 21:59 29.55309 -82.10869 33295 ft 473 kts 181°
2026-04-20 22:00 29.52008 -82.10214 32227 ft 480 kts 180°
2026-04-20 22:00 29.48700 -82.09567 31184 ft 486 kts 180°
2026-04-20 22:00 29.45373 -82.08914 30282 ft 487 kts 179°
2026-04-20 22:00 29.42081 -82.08259 29850 ft 478 kts 179°
2026-04-20 22:01 29.38792 -82.07604 29098 ft 477 kts 179°
2026-04-20 22:01 29.35566 -82.06947 28745 ft 468 kts 178°
2026-04-20 22:01 29.32395 -82.06100 28024 ft 473 kts 172°
2026-04-20 22:01 29.29273 -82.04855 27551 ft 472 kts 165°
2026-04-20 22:02 29.26297 -82.03310 27124 ft 469 kts 161°
2026-04-20 22:02 29.23389 -82.01605 26482 ft 469 kts 159°
2026-04-20 22:02 29.20538 -81.99827 25908 ft 465 kts 157°
2026-04-20 22:02 29.17728 -81.98027 25410 ft 459 kts 156°
2026-04-20 22:03 29.15001 -81.96265 24863 ft 456 kts 156°
2026-04-20 22:03 29.12220 -81.94477 24248 ft 453 kts 156°
2026-04-20 22:03 29.09512 -81.92722 23742 ft 448 kts 155°
2026-04-20 22:03 29.06902 -81.90723 23157 ft 449 kts 148°
2026-04-20 22:04 29.04501 -81.88521 22630 ft 447 kts 144°
2026-04-20 22:04 29.02189 -81.86177 22098 ft 444 kts 142°
2026-04-20 22:04 28.99921 -81.83767 21514 ft 442 kts 140°
2026-04-20 22:04 28.97777 -81.81312 21068 ft 437 kts 135°
2026-04-20 22:05 28.95824 -81.78686 20834 ft 427 kts 131°
2026-04-20 22:05 28.94013 -81.76013 20326 ft 425 kts 129°
2026-04-20 22:05 28.92267 -81.73332 19821 ft 421 kts 129°
2026-04-20 22:05 28.90559 -81.70686 19380 ft 416 kts 129°
2026-04-20 22:06 28.88827 -81.68022 18807 ft 415 kts 129°
2026-04-20 22:06 28.87105 -81.65393 18290 ft 412 kts 129°
2026-04-20 22:06 28.85415 -81.62833 17745 ft 406 kts 129°
2026-04-20 22:06 28.83724 -81.60296 17106 ft 401 kts 129°
2026-04-20 22:07 28.82039 -81.57797 16605 ft 390 kts 129°
2026-04-20 22:07 28.80326 -81.55463 16330 ft 373 kts 134°
2026-04-20 22:07 28.78438 -81.53550 16097 ft 354 kts 147°
2026-04-20 22:07 28.76385 -81.52084 15695 ft 344 kts 154°
2026-04-20 22:08 28.74281 -81.50822 15135 ft 342 kts 156°
2026-04-20 22:08 28.72160 -81.49625 14584 ft 340 kts 156°
2026-04-20 22:08 28.70057 -81.48435 14074 ft 337 kts 155°
2026-04-20 22:08 28.67974 -81.47233 13605 ft 332 kts 154°
2026-04-20 22:09 28.65953 -81.46043 13326 ft 320 kts 154°
2026-04-20 22:09 28.64007 -81.44886 12871 ft 317 kts 153°
2026-04-20 22:09 28.62062 -81.43726 12431 ft 313 kts 153°
2026-04-20 22:09 28.60086 -81.42744 11965 ft 310 kts 163°
2026-04-20 22:10 28.57983 -81.42251 11343 ft 311 kts 175°
2026-04-20 22:10 28.55800 -81.42108 10713 ft 312 kts 181°
2026-04-20 22:10 28.53642 -81.42181 10190 ft 310 kts 184°
2026-04-20 22:10 28.51497 -81.42302 9653 ft 309 kts 183°
2026-04-20 22:11 28.49374 -81.42389 9150 ft 306 kts 182°
2026-04-20 22:11 28.47227 -81.42432 8676 ft 303 kts 181°
2026-04-20 22:11 28.45129 -81.42447 8157 ft 301 kts 180°
2026-04-20 22:11 28.43070 -81.42448 7704 ft 297 kts 179°
2026-04-20 22:12 28.40993 -81.42445 7210 ft 295 kts 179°
2026-04-20 22:12 28.38942 -81.42443 6722 ft 292 kts 179°
2026-04-20 22:12 28.36945 -81.42442 6247 ft 290 kts 179°
2026-04-20 22:12 28.34970 -81.42442 5747 ft 274 kts 178°
2026-04-20 22:13 28.33113 -81.42282 4934 ft 268 kts 160°
2026-04-20 22:13 28.31570 -81.41235 4101 ft 253 kts 127°
2026-04-20 22:13 28.30710 -81.39639 3677 ft 226 kts 104°
2026-04-20 22:13 28.30316 -81.37991 3437 ft 214 kts 99°
2026-04-20 22:14 28.29776 -81.36398 3197 ft 215 kts 112°
2026-04-20 22:14 28.28922 -81.35028 2984 ft 210 kts 123°
2026-04-20 22:14 28.28194 -81.33719 2939 ft 183 kts 100°
2026-04-20 22:14 28.28085 -81.32362 2959 ft 167 kts 80°
2026-04-20 22:15 28.28291 -81.31081 2951 ft 165 kts 70°
2026-04-20 22:15 28.28760 -81.29909 2889 ft 162 kts 53°
2026-04-20 22:15 28.29504 -81.29033 2805 ft 148 kts 39°
2026-04-20 22:15 28.30370 -81.28397 2684 ft 148 kts 28°
2026-04-20 22:16 28.31329 -81.28069 2551 ft 142 kts 12°
2026-04-20 22:16 28.32295 -81.28047 2384 ft 135 kts
2026-04-20 22:16 28.33198 -81.28249 2230 ft 131 kts 349°
2026-04-20 22:16 28.34052 -81.28582 2238 ft 127 kts 356°
2026-04-20 22:17 28.34951 -81.28623 2126 ft 131 kts 10°
2026-04-20 22:17 28.35855 -81.28515 1703 ft 132 kts 11°
2026-04-20 22:17 28.36733 -81.28402 1466 ft 121 kts 12°
2026-04-20 22:17 28.37596 -81.28297 1283 ft 126 kts 10°
2026-04-20 22:18 28.38480 -81.28248 967 ft 127 kts
2026-04-20 22:18 28.39367 -81.28217 724 ft 127 kts
2026-04-20 22:18 28.40257 -81.28245 486 ft 128 kts
2026-04-20 22:18 28.41151 -81.28235 322 ft 131 kts
2026-04-20 22:19 28.42062 -81.28242 123 ft 129 kts
2026-04-20 22:19 28.42877 -81.28241 87 ft 98 kts
2026-04-20 22:19 28.43355 -81.28245 87 ft 36 kts 355°
2026-04-20 22:19 28.43572 -81.28358 87 ft 33 kts 333°
2026-04-20 22:20 28.43791 -81.28374 87 ft 30 kts
2026-04-20 22:20 28.43876 -81.28506 87 ft 23 kts 273°
2026-04-20 22:20 28.43875 -81.28642 87 ft 8 kts 268°
2026-04-20 22:20 28.43874 -81.28706 87 ft 7 kts 271°
2026-04-20 22:21 28.43877 -81.28764 87 ft 7 kts 275°
2026-04-20 22:21 28.43882 -81.28818 87 ft 6 kts 271°
2026-04-20 22:21 28.43877 -81.28870 87 ft 8 kts 262°
2026-04-20 22:21 28.43863 -81.28999 87 ft 18 kts 262°
2026-04-20 22:22 28.43868 -81.29147 87 ft 23 kts 273°
2026-04-20 22:22 28.43725 -81.29262 88 ft 36 kts 180°
2026-04-20 22:22 28.43556 -81.29308 90 ft 20 kts 258°
2026-04-20 22:22 28.43552 -81.29465 90 ft 12 kts 269°
2026-04-20 22:23 28.43551 -81.29472 90 ft 1 kts 270°
2026-04-20 22:23 28.43550 -81.29555 90 ft 21 kts 269°
2026-04-20 22:23 28.43548 -81.29733 90 ft 22 kts 272°
2026-04-20 22:23 28.43510 -81.29881 90 ft 20 kts 192°
2026-04-20 22:24 28.43371 -81.29884 90 ft 19 kts 182°
2026-04-20 22:24 28.43308 -81.29976 90 ft 14 kts 277°
2026-04-20 22:24 28.43360 -81.30016 90 ft 0 kts 342°